This demonstration page uses our WeatherBlox Daily Observations layout. Learn more.

Hourly Observations for June 7, 2020

Temp ( °F °C ) Dew Point ( °F °C ) Humidity (%) Winds ( mph kmh ) Pressure ( in mb ) Visibility ( mi km ) Precip ( " mm )
12:54 am 00:54 Clear 81 27.2 72 22.2 74 74 SSE 14 22 29.8 1009 10 16.0934 0 0
1:54 am 01:54 Clear 80 26.7 71 21.7 74 74 SSE 15 24 29.78 1009 10 16.0934 0 0
2:54 am 02:54 Clear 78 25.6 71 21.7 79 79 S 12 19 29.79 1009 10 16.0934 0 0
3:54 am 03:54 Clear 77 25 70 21.1 79 79 S 12 19 29.79 1009 10 16.0934 0 0
4:54 am 04:54 Clear 76 24.4 70 21.1 82 82 SSE 13 20 29.79 1009 10 16.0934 0 0
5:54 am 05:54 Clear 75 23.9 70 21.1 84 84 S 13 20 29.79 1009 10 16.0934 0 0
6:54 am 06:54 Sunny 76 24.4 70 21.1 82 82 S 14 22 29.79 1009 10 16.0934 0 0
7:54 am 07:54 Sunny 80 26.7 70 21.1 71 71 S 16 26 29.79 1009 10 16.0934 0 0
8:54 am 08:54 Sunny 83 28.3 70 21.1 65 65 S 22 35 29.79 1009 10 16.0934 0 0
9:54 am 09:54 Sunny 86 30 70 21.1 59 59 S 22 35 29.78 1008 10 16.0934 0 0
10:54 am 10:54 Sunny 88 31.1 69 20.6 54 54 S 20 31 29.77 1008 10 16.0934 0 0
11:54 am 11:54 Sunny 91 32.8 67 19.4 45 45 S 26 43 29.75 1008 10 16.0934 0 0
12:54 pm 12:54 Sunny 92 33.3 66 18.9 43 43 S 25 41 29.73 1007 10 16.0934 0 0
1:54 pm 13:54 Sunny 94 34.4 64 17.8 37 37 S 22 35 29.72 1006 10 16.0934 0 0
2:54 pm 14:54 Sunny 94 34.4 65 18.3 38 38 S 24 39 29.71 1006 10 16.0934 0 0
3:54 pm 15:54 Sunny 94 34.4 63 17.2 36 36 S 25 41 29.69 1006 10 16.0934 0 0
4:54 pm 16:54 Sunny 93 33.9 59 15 32 32 S 29 46 29.67 1005 10 16.0934 0 0
5:54 pm 17:54 Sunny 93 33.9 60 15.6 33 33 S 23 37 29.66 1005 10 16.0934 0 0
6:54 pm 18:54 Sunny 90 32.2 62 16.7 39 39 S 23 37 29.65 1004 10 16.0934 0 0
7:54 pm 19:54 Sunny 88 31.1 64 17.8 45 45 SSE 22 35 29.65 1004 10 16.0934 0 0
8:54 pm 20:54 Sunny 85 29.4 62 16.7 46 46 SSE 17 28 29.65 1004 10 16.0934 0 0
9:54 pm 21:54 Clear 83 28.3 64 17.8 53 53 SSE 17 28 29.67 1005 10 16.0934 0 0
10:54 pm 22:54 Clear 82 27.8 65 18.3 56 56 SSE 18 30 29.69 1005 10 16.0934 0 0
11:54 pm 23:54 Clear 80 26.7 65 18.3 60 60 S 21 33 29.69 1005 10 16.0934 0 0

Powered by AerisWeather